Location: �terpigny
(49.8910°N, 2.9249°E)
Time: 12:18:14
(UTC+00:00)

ISS - Visible Passes

Search period start: 22 January 2022 00:00
Search period end: 01 February 2022 00:00
Orbit: 413 x 422 km, 51.6° (Epoch: 22 January)

Date Brightness Start Highest point End Pass type
(mag) Time Alt. Az. Time Alt. Az. Time Alt. Az.
22 Jan -2.5 17:14:17 10° SSW 17:17:13 29° SSE 17:19:58 11° E visible
22 Jan -2.8 18:50:26 10° WSW 18:52:54 46° W 18:52:54 46° W visible
23 Jan -3.8 18:02:28 10° WSW 18:05:48 79° SSE 18:06:56 38° E visible
23 Jan -0.5 19:39:22 10° W 19:39:52 14° W 19:39:52 14° W visible
24 Jan -3.5 17:14:34 10° SW 17:17:51 58° SSE 17:20:56 11° ENE visible
24 Jan -2.8 18:51:20 10° W 18:53:52 45° WNW 18:53:52 45° WNW visible
25 Jan -3.7 18:03:17 10° W 18:06:38 71° N 18:07:51 36° ENE visible
25 Jan -0.5 19:40:14 10° WNW 19:40:47 14° WNW 19:40:47 14° WNW visible
26 Jan -3.8 17:15:17 10° WSW 17:18:37 84° NNW 17:21:49 11° ENE visible
26 Jan -2.8 18:52:14 10° WNW 18:54:45 45° NW 18:54:45 45° NW visible
27 Jan -3.6 18:04:12 10° W 18:07:31 61° N 18:08:45 34° ENE visible
27 Jan -0.6 19:41:03 10° WNW 19:41:41 15° WNW 19:41:41 15° WNW visible
28 Jan -3.6 17:16:10 10° W 17:19:29 64° N 17:22:46 10° ENE visible
28 Jan -3.0 18:53:04 10° WNW 18:55:42 52° WNW 18:55:42 52° WNW visible
29 Jan -3.8 18:05:05 10° WNW 18:08:25 70° N 18:09:46 33° E visible
29 Jan -0.7 19:41:56 10° W 19:42:42 16° W 19:42:42 16° W visible
30 Jan -3.6 17:17:04 10° WNW 17:20:23 63° N 17:23:42 10° E visible
30 Jan -3.2 18:53:54 10° WNW 18:56:49 55° WSW 18:56:49 55° WSW visible
31 Jan -3.8 18:05:54 10° WNW 18:09:14 80° SSW 18:11:01 25° ESE visible
31 Jan -0.7 19:43:05 10° W 19:43:58 15° WSW 19:43:58 15° WSW visible
